Home > Time Zones > World Clock > Weather > U.S.A. > Bend > Past weeks

Flag for U.S.A. Weather past 2 weeks in Bend, Oregon, U.S.A.

Now
79 °F

Sunny.


Feels Like: 78 °F
Forecast: 40 / 79 °F
Wind: 10 mph from Northeast

Location: Roberts Field Airport

Current Time: Jul 28, 2015 at 3:01:55 PM

Latest Report: Jul 28, 2015 at 1:56 PM


Visibility: 10 mi

Pressure: 30.17 "Hg (26.60 "Hg at 1103m altitude)

Humidity: 19%

Dew point: 33 °F

Location of BendLocation

Historic Weather in Bend — Graph

°F

Bend temperature yesterday

Maximum temperature yesterday: 73 °F (at 3:56 PM)
Minimum temperature yesterday: 40 °F (at 5:56 AM)
Average temperature yesterday: 59 °F

Past Weeks' High & Low Weather Summary

 TemperatureHumidityPressure
High94 °F (Jul 19, 4:56 PM)97% (Jul 14, 4:56 AM)30.25 "Hg (Jul 14, 4:56 AM)
Low38 °F (Jul 28, 2:56 AM)13% (Jul 19, 2:56 PM)29.75 "Hg (Jul 22, 6:56 PM)
Average65 °F46%29.99 "Hg
* Reported Jul 13 1:56 PM — Jul 28 1:56 PM, Bend, Weather by CustomWeather, © 2015

Note: Actual official high and low records may vary slightly from our data, if they occured in-between our weather recording intervals... More about our weather records

Advertising

Bend weather history for previous 24 hours

 ConditionsComfort  
Time TempWeatherWind HumidityBarometerVisibility
1:56 PM
Tue, Jul 28
79 °FSunny.10 mph19%30.17 "Hg10 mi
12:56 PM75 °FSunny.5 mph24%30.18 "Hg10 mi
11:56 AM71 °FSunny.6 mph29%30.21 "Hg10 mi
10:56 AM67 °FSunny.No wind36%30.21 "Hg10 mi
9:56 AM62 °FSunny.No wind44%30.23 "Hg10 mi
8:56 AM58 °FSunny.No wind51%30.24 "Hg10 mi
7:56 AM52 °FSunny.3 mph59%30.25 "Hg10 mi
6:56 AM44 °FSunny.6 mph71%30.25 "Hg10 mi
5:56 AM39 °FClear.No wind82%30.24 "Hg10 mi
4:56 AM40 °FClear.3 mph80%30.23 "Hg10 mi
3:56 AM42 °FClear.7 mph76%30.22 "Hg10 mi
2:56 AM38 °FClear.No wind79%30.23 "Hg10 mi
1:56 AM42 °FClear.3 mph76%30.22 "Hg10 mi
12:56 AM46 °FClear.No wind68%30.22 "Hg10 mi
11:56 PM
Mon, Jul 27
47 °FClear.3 mph66%30.22 "Hg10 mi
10:56 PM54 °FClear.No wind55%30.20 "Hg10 mi
9:56 PM56 °FClear.5 mph49%30.19 "Hg10 mi
8:56 PM61 °FSunny.3 mph39%30.17 "Hg10 mi
7:56 PM66 °FSunny.10 mph32%30.15 "Hg10 mi
6:56 PM70 °FSunny.12 mph28%30.14 "Hg10 mi
5:56 PM72 °FSunny.8 mph27%30.14 "Hg10 mi
4:56 PM73 °FSunny.8 mph26%30.12 "Hg10 mi
3:56 PM73 °FSunny.10 mph27%30.11 "Hg10 mi
Weather by CustomWeather, © 2015

See weather overviewHow to use our weather pages